Location: Newark
(60.0000°N, 100.0000°E)
Time: 15:54:25
(UTC+00:00)

N. Korean satellite - Pass Details

Date: 27 November 2019
Orbit: 456 x 506 km, 97.2° (Epoch: 05 December)

Event Time Altitude Azimuth Distance (km) Brightness Sun altitude
Rises 23:04:11 0° 18° (NNE) 2,612 10.4 -18.7°
Reaches altitude 10° 23:06:22 10° 25° (NNE) 1,717 9.5 -18.4°
Maximum altitude 23:09:55 44° 99° (E) 697 7.8 -18.0°
Drops below altitude 10° 23:13:24 10° 173° (S) 1,679 9.5 -17.6°
Sets 23:15:31 0° 180° (S) 2,547 10.4 -17.3°
